Weather in Gizhiga

Russia / Magadan District     61°56′56″N   160°22′39″E
temp.,
°C
wind,
m/s
gust,
m/s
humid.,
%
clouds,
%
prec.,
mm/h
press.,
hPa
HPBL,
m
22 june, tue
tue2223:00+10ssw336812 0.0 101415
02:00+9s117551 0.0 101410
05:00+12nne116414 0.0 101428
08:00+16nne335468 0.0 1014522
11:00+18ne334799 0.0 10131315
14:00+20e233889 0.0 10122038
17:00+18sw445170 0.0 1011495
20:00+12ssw5872100 0.0 1012165
23 june, wed
wed2323:00+11ssw467091 0.0 1012135
02:00+10ssw337079 0.0 101244
05:00+11ssw347153 0.0 1012119
08:00+14ssw445917 0.0 1011414
11:00+16ssw555422 0.0 1011791
14:00+16sw775311 0.0 1010788
17:00+13ssw795829 0.0 1010465
20:00+10ssw696914 0.0 1010318
24 june, thu
thu2423:00+8ssw58845 0.0 1010128
02:00+7ssw58915 0.0 1010144
05:00+8ssw69875 0.0 1010300
08:00+10sw67744 0.0 1010445
11:00+12ssw78649 0.0 1008560
14:00+13ssw886010 0.0 1007570
17:00+12ssw78638 0.0 1006417
20:00+9ssw457368 0.0 1006207
25 june, fri
fri2523:00+7ssw338643 0.0 100544
02:00+6sw1186100 0.0 100410
05:00+10nne236864 0.0 100398
08:00+15nne456193 0.0 1003382
11:00+20nne4548100 0.0 1002909
14:00+22n454081 0.0 10012383
17:00+14nnw2382100 3.2 1002193
20:00+15wnw127635 0.1 1003134
26 june, sat
sat2623:00+12ssw1186100 0.1 100310
02:00+12ene118386 0.0 100410
05:00+15nne117589 0.0 100412
08:00+18nne125978 0.0 1005362
11:00+21sw214854 0.0 1005974
14:00+17ssw776637 0.0 1005272
17:00+16ssw796961 0.1 1006272
20:00+12sw688064 0.3 1006153